Starlink 32125

operational
NORAD ID: 60260 Int'l Des: 2024-131 Owner: SPXS Country: US Constellation: starlink
LEOCIRCULAR

Starlink 32125について

説明を読み込み中...

リアルタイム位置

3D地球を読み込み中...

次回通過

高度履歴

Altitude vs Time

uPlot chart will show altitude changes over time

軌道要素

1 60260U 24131F 25258.38736602 .00001324 00000-0 56798-4 0 9991
2 60260 53.1605 146.3652 0001257 86.5354 273.5791 15.30208174 64880
Epoch: Sep 15, 2025 • Age: 18 hours

現在のステータス

高度 478.9 km
速度 7.63 km/s
衛星直下点 43.92°N, 124.18°W
打ち上げ日 Jul 27, 2024
運用期間 1.1 years
タイプ internet

技術仕様

分類 Payload
質量 730.00 kg
乾燥質量 700.00 kg
総質量 730.00 kg
長さ 0.30 m
直径 4.10 m
スパン 29.00 m
形状 Box + pan
製造者 SPXS
バスタイプ Starlink V2M
フェーズステータス In Orbit
所有者/国 SPXS/US

大規模コンステレーション

Loading constellations...